Theta_e
346 345 344 346 347 349 350 349 350 349 348 348 348 347 347 346 347 346 347 346 346 345 344 343 344 344 343 343 343 344 342 340 339 336 335 335 337 340 341 341 341 342 342 341 338 334 332 333 336 338 339 339 339 339 339 337 335 335 335 336 335 335 335 335 335 335 335 336 336 336 335 335 334 334 334 334 335 337 338 338 338 337 336 335 333
346 346 345 346 347 348 349 349 349 349 348 348 348 348 347 347 346 346 345 345 345 345 344 344 345 344 343 343 344 344 343 342 342 340 338 336 336 339 341 340 341 341 341 341 340 339 337 334 333 335 336 338 339 339 339 339 338 337 337 336 336 335 335 334 334 334 335 335 335 335 334 334 335 334 334 333 334 335 336 336 336 336 335 335 334
348 347 346 346 347 349 349 348 348 349 349 347 347 348 348 347 346 345 345 344 345 345 345 345 344 343 343 343 343 343 344 343 342 341 340 339 337 338 340 341 341 341 340 341 340 341 340 338 336 334 332 334 336 337 339 339 339 339 339 338 338 337 337 336 336 335 335 335 335 334 334 334 334 334 332 332 331 332 333 333 333 334 334 334 335
349 347 346 345 347 348 349 349 348 349 348 346 347 348 347 346 345 344 343 343 342 343 343 344 343 342 342 342 342 342 343 342 343 342 341 341 340 340 340 340 340 340 340 340 340 340 340 341 340 338 336 335 334 335 336 338 339 339 339 338 339 339 338 337 336 336 335 335 335 335 334 334 333 333 332 332 332 332 333 333 334 336 336 335 335
350 348 347 347 346 346 348 349 349 349 346 345 346 348 346 345 345 343 342 341 340 341 342 342 342 341 341 341 341 341 341 342 342 341 341 341 341 341 341 339 339 339 340 340 340 341 340 341 340 340 340 339 338 337 336 336 337 338 337 337 338 339 339 339 337 336 335 335 335 336 336 335 334 334 334 335 335 335 336 336 337 338 338 337 337
350 350 349 347 346 345 347 348 349 348 345 345 347 347 346 345 345 343 343 342 340 339 340 341 341 341 341 340 341 341 340 340 340 341 340 341 340 340 340 340 339 338 339 339 340 340 341 341 341 340 340 340 340 339 338 338 338 337 337 337 337 338 339 339 339 338 337 337 337 337 337 337 336 337 337 338 338 338 337 337 338 338 338 338 337
349 351 350 347 346 346 346 348 350 348 344 345 347 346 345 344 344 344 343 342 340 336 338 341 341 341 341 340 341 341 341 339 339 339 340 341 341 340 341 341 340 339 339 339 339 340 340 340 341 341 341 341 340 340 339 339 339 340 340 339 339 339 339 339 340 339 339 339 339 338 338 338 338 338 338 338 339 338 338 338 338 338 338 338 338
349 350 349 348 347 347 347 348 350 347 344 346 345 344 343 343 344 344 343 340 338 336 337 340 340 340 340 340 339 340 340 339 339 339 340 341 341 341 342 341 340 340 340 340 340 339 339 339 340 341 341 341 341 340 340 341 340 341 341 341 341 340 340 340 340 340 340 340 340 340 339 339 339 339 339 338 339 339 339 339 339 339 339 339 339
349 350 349 347 348 349 347 348 349 347 345 345 345 342 342 344 345 344 339 336 335 336 337 337 338 339 339 339 339 339 340 340 339 339 339 340 340 340 341 341 341 341 341 341 340 338 338 338 339 340 341 341 341 340 340 341 341 341 341 341 341 341 341 341 340 339 339 339 340 340 340 340 340 340 340 339 339 339 340 340 339 339 339 340 339
346 348 348 347 348 349 348 347 348 346 345 346 346 344 342 344 345 341 336 333 333 334 336 335 336 338 338 339 339 340 340 340 340 340 340 341 340 339 340 340 340 340 340 341 340 338 337 337 338 339 340 340 341 340 340 341 341 341 341 341 341 341 341 341 340 340 339 339 339 339 339 339 339 340 339 339 339 340 340 340 340 340 339 340 340
344 345 345 345 345 347 349 349 347 346 345 345 347 345 343 342 344 340 335 333 332 334 336 334 334 336 337 338 340 341 340 340 340 340 340 341 341 340 340 340 340 340 340 340 340 338 337 337 337 338 339 340 340 340 340 341 341 340 341 341 340 340 340 340 340 340 340 339 339 339 339 338 339 339 339 339 338 339 339 338 338 338 339 339 339
344 341 341 343 342 344 348 350 348 346 344 344 346 346 344 343 342 339 335 334 335 335 336 334 333 335 337 338 339 341 340 340 340 341 341 341 343 342 340 339 339 339 338 339 340 339 338 338 338 338 338 338 339 339 340 340 340 339 339 339 339 339 339 339 340 339 339 338 338 337 336 335 334 333 333 333 332 332 332 331 331 332 332 333 333
345 340 338 339 340 341 347 350 349 347 345 344 347 347 344 343 342 338 335 335 336 337 337 336 335 335 338 339 339 340 340 341 342 341 342 343 343 343 341 341 340 339 339 339 338 337 338 338 339 340 339 338 337 337 338 338 337 336 336 337 338 338 338 338 338 337 335 334 332 330 327 325 324 323 322 322 321 321 321 321 321 321 322 322 322
343 338 337 338 338 340 345 348 349 347 345 345 346 347 344 342 340 337 335 335 338 339 339 337 336 336 337 339 340 340 340 341 342 342 342 344 344 343 342 342 341 339 339 336 333 331 330 332 336 339 340 339 337 336 336 335 334 333 332 332 334 335 335 336 336 332 329 327 323 320 319 318 318 318 318 318 318 318 318 317 317 317 317 317 317
344 339 337 337 337 340 343 346 347 347 345 344 346 347 343 341 339 336 334 334 338 340 340 338 338 337 337 339 340 341 341 341 341 342 342 343 343 342 341 340 340 338 336 333 331 327 324 325 329 333 337 338 337 337 336 335 333 329 327 328 329 330 331 333 330 325 322 320 318 318 318 318 318 318 318 317 317 317 317 317 317 317 317 317 316
345 342 339 336 336 338 341 344 345 345 345 344 346 346 344 341 338 335 334 334 336 338 339 339 339 337 338 338 339 342 342 339 339 341 343 343 341 339 339 339 338 337 336 333 331 329 326 325 324 326 330 334 336 337 337 335 331 325 323 323 323 323 324 324 322 319 318 318 318 318 318 318 317 317 317 317 317 317 317 317 317 317 317 317 317
347 346 341 336 335 337 340 343 343 344 344 344 345 345 344 342 338 336 336 334 334 336 337 337 338 337 337 337 339 342 340 337 338 341 342 343 341 340 340 340 338 337 335 333 332 332 331 328 325 324 324 326 330 331 334 335 328 322 321 321 320 319 319 319 318 318 318 318 318 317 318 318 318 318 318 319 318 318 319 319 319 319 319 319 319
348 347 344 338 335 337 340 341 341 342 343 344 345 345 345 344 338 335 336 334 333 334 334 336 336 336 337 336 336 339 337 337 341 342 342 343 342 341 341 340 339 337 335 333 333 334 333 329 325 325 324 324 325 325 328 329 323 320 319 319 319 319 319 319 318 317 317 318 319 319 320 320 320 320 320 321 320 320 320 320 321 320 320 320 320
347 347 346 340 337 337 340 341 340 340 341 344 345 344 345 345 340 335 334 334 333 333 333 334 335 335 337 337 336 337 338 339 341 341 342 343 343 342 342 341 340 338 336 335 334 335 335 331 327 329 330 326 324 322 322 322 320 320 319 319 320 319 318 318 318 318 319 320 320 321 321 322 322 321 322 321 322 321 322 321 322 322 322 321 321
347 346 346 343 340 339 339 340 340 339 340 343 344 344 345 346 343 337 335 335 333 333 333 332 335 335 336 337 338 338 339 340 340 340 341 342 342 343 342 342 341 339 339 338 336 336 336 334 331 332 331 327 325 323 321 320 320 320 320 320 319 318 318 319 319 320 321 321 321 322 322 322 322 321 321 321 322 322 322 322 323 322 322 322 321
346 346 345 344 341 340 339 339 340 339 340 343 345 345 345 346 345 338 336 336 334 333 333 333 334 336 337 338 338 340 340 340 341 341 341 341 341 341 341 341 340 339 339 339 338 337 337 336 333 333 333 331 330 329 325 322 321 321 321 319 319 319 319 320 320 321 322 322 321 321 321 320 320 320 320 321 321 322 321 322 323 323 322 322 322
344 345 344 344 342 340 339 339 339 339 340 343 345 345 345 346 344 338 335 337 336 335 336 337 336 334 337 338 339 341 341 339 340 341 341 340 341 340 339 339 339 338 338 339 339 338 337 337 335 334 334 333 333 333 331 327 325 324 323 321 320 321 321 321 321 322 322 322 321 320 320 320 320 320 320 321 321 321 321 322 323 323 323 322 323
343 343 343 343 342 340 338 339 339 339 341 343 345 345 345 346 345 341 338 338 339 338 337 338 336 333 336 339 340 341 340 337 338 340 341 340 340 339 338 339 339 339 339 339 339 339 338 337 336 336 335 335 333 333 334 333 331 329 327 325 325 324 323 323 323 323 322 322 322 321 321 321 321 321 321 321 322 322 322 322 322 323 323 323 322
342 341 341 342 341 339 339 339 339 339 340 342 344 345 345 346 346 345 343 343 343 342 340 338 335 332 334 337 340 342 341 339 338 338 339 339 340 339 339 339 339 340 339 339 339 339 338 337 337 336 335 335 334 334 334 334 334 334 332 330 328 326 326 324 324 324 324 324 324 323 323 322 322 321 322 322 322 322 322 322 322 322 322 323 323
340 339 339 340 340 338 338 339 339 339 340 341 343 345 345 345 345 345 346 345 345 345 344 341 337 333 333 334 336 340 341 341 340 340 340 339 340 339 340 339 339 340 340 340 339 337 337 337 337 337 336 335 335 334 334 334 334 334 334 334 331 329 327 326 326 326 325 325 325 325 325 324 323 322 322 322 322 323 323 323 323 323 323 323 324
337 337 336 339 339 338 337 338 339 339 339 340 341 343 345 344 345 344 345 345 345 345 345 344 338 332 332 333 333 336 339 339 340 341 338 338 339 339 339 339 339 339 340 340 339 338 336 336 336 337 337 336 336 335 335 334 334 334 334 334 334 332 329 326 326 327 326 326 326 326 326 325 324 322 322 322 322 323 323 323 323 323 324 324 324
336 335 335 337 337 337 336 336 338 339 339 339 340 342 343 344 344 343 343 345 346 345 345 344 338 328 327 331 332 333 335 334 334 336 334 334 338 339 338 339 339 339 339 339 339 338 336 336 336 336 337 337 336 336 335 334 334 334 334 335 335 335 333 330 327 325 325 326 326 326 326 325 325 323 322 322 322 323 323 323 324 324 324 324 324
336 335 335 336 336 336 337 337 337 338 339 339 340 341 342 342 343 343 343 343 344 345 344 343 341 332 326 327 330 332 334 333 329 327 328 331 336 338 338 339 339 339 340 340 339 335 334 335 335 335 335 336 336 336 335 334 334 334 335 335 335 335 335 334 331 328 325 325 325 325 325 325 324 323 322 322 323 323 324 324 324 324 324 324 325
336 336 335 335 335 335 337 337 337 338 338 339 339 340 341 342 342 341 342 342 342 343 343 342 342 340 334 329 327 328 330 331 327 322 322 327 333 335 336 337 338 339 340 340 337 333 333 333 333 332 333 334 335 335 335 333 333 334 335 336 335 335 335 336 335 332 327 324 324 324 324 324 324 323 322 322 323 323 324 324 324 324 324 324 324
337 336 334 334 334 334 337 338 338 337 338 339 339 340 340 341 341 341 341 342 341 341 342 342 342 342 341 337 333 328 326 326 325 323 321 324 327 330 333 335 336 338 340 339 337 332 332 333 331 330 331 332 333 334 334 333 333 334 335 335 336 335 335 336 336 335 331 325 323 324 325 324 324 323 322 323 323 323 324 324 324 325 324 324 324
338 336 334 332 331 333 335 338 338 338 337 338 338 338 339 340 340 340 340 341 342 341 341 341 342 342 341 341 339 334 330 326 324 324 323 323 324 326 330 332 334 337 339 340 338 332 330 331 330 330 331 331 332 333 333 333 333 334 335 336 335 335 335 336 336 335 333 328 323 323 325 325 325 324 324 324 324 324 324 324 325 325 325 325 324
340 338 335 332 331 332 335 336 337 337 337 338 338 338 338 338 338 339 340 340 341 341 341 340 341 341 340 340 339 338 337 334 328 324 322 323 324 325 327 329 331 333 336 338 337 330 327 329 330 330 331 331 332 332 332 332 333 334 335 335 335 336 335 335 335 335 334 331 325 323 324 325 326 325 325 325 325 325 325 325 325 325 325 324 323
339 339 335 332 331 333 335 335 337 337 337 338 339 339 338 338 338 338 339 340 340 339 340 341 340 340 340 339 338 338 339 339 336 331 326 323 322 323 326 327 328 329 330 333 332 328 325 326 327 328 329 330 330 329 330 331 332 333 335 336 336 336 335 335 335 334 334 332 327 324 324 325 326 326 326 325 325 326 326 326 325 325 324 324 323
338 338 335 332 331 333 335 336 336 336 337 338 339 340 340 338 338 338 337 337 337 337 337 337 338 339 339 338 338 338 338 338 338 337 335 332 327 323 323 325 326 327 328 329 330 328 326 325 325 326 326 328 327 326 327 328 330 332 333 335 335 335 335 335 335 334 333 332 329 324 324 325 326 326 326 326 326 327 327 327 325 324 323 322 322
337 337 335 332 331 333 334 336 336 335 334 335 336 339 340 339 339 337 337 336 336 336 336 335 335 336 337 336 336 336 337 337 336 336 337 338 336 333 329 327 325 325 326 328 329 329 327 325 324 324 325 326 326 325 325 326 328 330 332 333 334 335 335 334 335 334 333 333 330 326 324 325 326 327 327 327 327 327 328 328 326 324 323 322 322
337 335 334 333 331 333 334 335 336 335 334 333 334 335 337 339 339 338 337 336 334 334 335 335 335 335 336 336 335 335 335 336 336 336 336 337 338 338 338 336 334 330 328 327 327 328 328 327 325 324 324 325 325 325 325 325 325 327 329 331 332 333 333 333 334 334 332 332 331 328 326 325 326 327 327 328 327 327 328 328 327 324 323 323 323
335 334 333 333 332 333 334 334 335 334 333 333 334 334 335 336 337 337 336 335 335 334 334 334 334 335 336 335 335 336 337 336 336 336 336 337 337 337 338 339 339 338 336 333 330 329 329 327 326 325 325 324 324 323 324 324 323 323 324 326 329 330 331 332 332 332 331 331 331 330 328 326 326 326 327 327 327 327 328 329 327 325 324 324 324
335 333 333 332 331 332 332 333 333 332 332 333 333 334 334 334 334 334 334 334 334 334 334 334 335 334 335 334 334 336 337 337 336 335 336 337 337 338 338 338 338 339 340 339 338 335 333 332 331 330 330 329 327 325 323 323 322 323 322 322 323 326 327 327 328 328 329 329 329 329 329 328 326 326 326 326 327 327 327 328 328 327 326 325 326
335 334 333 332 331 331 331 332 331 331 331 332 333 334 334 334 334 334 333 333 333 334 334 333 334 334 334 335 334 336 337 336 335 335 336 336 336 337 336 337 338 339 340 340 341 340 339 339 337 336 336 334 333 331 328 325 323 323 324 323 323 324 324 324 324 324 326 327 327 327 328 329 327 326 326 326 327 327 327 328 328 328 328 327 328
335 335 333 333 331 331 331 331 330 331 332 332 332 333 333 334 334 334 333 333 333 333 333 333 334 334 334 335 335 336 336 335 334 334 335 335 335 335 335 336 336 337 338 338 339 341 340 340 339 338 338 338 337 336 334 331 329 328 328 327 326 327 326 325 324 324 324 326 327 326 327 328 328 328 326 327 327 327 326 327 329 329 328 329 330
335 335 334 334 333 331 331 331 331 332 333 332 332 331 332 333 333 332 333 333 333 333 333 333 334 335 335 335 335 336 334 335 334 334 335 335 335 335 335 334 335 336 336 337 338 340 340 340 340 339 339 339 338 336 335 334 333 333 333 331 330 330 328 326 326 325 324 325 326 326 326 327 328 327 327 327 327 326 326 326 328 329 329 329 331
335 334 334 334 334 332 331 331 331 331 332 331 331 331 331 331 332 332 332 333 333 333 333 334 335 334 335 335 335 335 335 335 335 334 335 334 335 336 335 335 336 337 337 338 338 338 340 341 341 340 341 340 339 337 336 335 335 336 336 334 334 334 332 330 329 329 327 325 325 325 324 324 326 327 327 327 326 327 326 325 326 328 329 330 331
336 335 335 335 334 333 332 332 331 332 331 330 330 331 330 332 332 333 333 333 334 334 335 335 335 335 336 336 336 336 336 337 336 335 335 335 336 337 336 337 339 340 341 341 341 340 341 342 341 342 343 342 339 339 339 338 337 337 338 338 338 337 335 334 334 334 333 330 328 327 325 325 325 325 326 325 326 326 326 325 325 327 329 330 332
338 336 336 335 335 334 334 333 333 332 331 330 331 330 331 331 332 333 335 336 337 337 337 337 338 337 339 339 339 339 339 338 338 339 339 338 339 339 340 341 342 343 343 343 343 344 344 345 345 344 345 344 341 340 341 341 340 340 341 342 341 340 340 338 338 338 337 336 334 331 330 328 326 325 325 324 324 326 326 325 325 327 329 331 332
341 339 337 336 336 335 335 335 334 333 332 332 332 331 331 332 333 334 336 337 338 339 339 339 339 339 340 341 342 341 341 341 342 342 342 342 342 341 343 343 344 345 345 345 346 346 347 348 347 347 346 346 344 343 343 343 343 345 345 345 344 343 343 342 342 342 342 340 338 335 334 333 330 328 326 324 323 325 326 326 326 327 330 331 332
345 341 339 337 337 337 336 336 335 334 334 333 333 333 333 333 334 336 337 339 340 341 342 342 341 342 342 343 344 344 344 345 345 346 346 345 345 345 346 347 348 348 348 349 349 349 350 350 350 349 349 349 349 349 348 348 348 348 348 347 347 347 347 346 346 345 344 342 340 338 337 337 335 333 331 328 325 324 325 326 326 327 330 332 332
348 345 341 339 338 338 337 338 338 336 335 334 335 334 334 335 337 339 340 341 342 344 344 344 344 344 344 346 346 347 347 348 348 348 349 349 349 350 351 351 352 353 354 354 353 354 354 353 353 354 354 354 354 354 353 353 352 352 351 351 350 350 348 346 345 345 344 343 342 340 340 339 338 336 335 333 330 326 325 327 328 328 329 332 333
352 350 347 344 340 339 338 339 339 339 336 336 337 337 337 339 341 342 343 343 344 344 344 345 345 346 346 347 349 349 350 350 350 351 351 352 352 353 353 354 355 356 357 357 356 357 357 357 357 357 357 358 357 357 356 356 354 354 353 352 351 351 347 345 345 346 345 343 342 340 339 339 338 337 336 335 334 330 326 325 328 328 329 331 333
355 354 352 348 345 343 342 340 340 339 337 338 339 340 341 343 345 345 344 345 345 346 345 345 346 347 348 349 350 351 352 352 353 353 353 354 355 355 356 357 357 358 358 358 357 357 358 358 358 359 358 359 358 357 357 356 356 355 353 352 352 351 347 344 345 345 343 341 341 341 340 339 338 337 338 337 336 334 329 326 326 328 329 331 334
359 357 355 352 350 347 345 342 340 339 338 339 341 341 343 345 346 346 346 347 347 347 347 348 348 349 351 352 353 354 354 354 355 355 355 356 357 357 357 358 358 359 359 358 357 358 359 359 359 359 358 358 357 357 357 356 356 356 354 353 354 352 349 345 344 343 341 340 342 342 340 340 340 339 340 339 337 336 332 327 326 328 330 333 335
360 359 358 356 354 351 348 345 343 341 340 341 342 342 344 346 347 348 348 348 348 349 349 350 351 352 353 354 355 355 355 355 356 356 357 358 358 358 359 358 359 360 361 360 360 360 359 359 359 358 357 358 358 356 355 355 355 355 355 355 355 354 352 349 346 343 342 341 343 344 342 342 342 342 341 339 337 338 335 329 327 329 331 334 336
Wind_Speed
9 8 8 8 8 7 6 5 5 4 4 4 4 4 4 4 3 2 2 2 2 4 5 5 4 2 2 3 3 5 5 4 4 3 3 4 5 5 5 5 4 3 2 2 2 3 3 4 4 4 3 2 2 1 1 2 2 3 2 2 1 1 1 1 1 2 2 2 2 3 3 3 3 3 4 4 4 5 6 7 7 7 8 8 8
8 8 7 7 7 6 5 5 5 4 3 3 3 4 4 4 4 4 4 3 2 2 3 5 5 3 3 3 3 4 3 3 3 2 2 3 4 4 4 4 4 4 3 3 2 2 2 3 3 3 4 3 3 2 2 2 1 1 1 1 1 1 1 2 2 3 2 3 3 4 4 4 4 4 4 4 4 5 6 7 7 7 7 7 8
8 8 7 7 6 6 5 5 5 4 3 2 3 3 4 5 6 6 7 6 4 3 3 4 5 4 4 4 4 4 3 2 2 2 2 2 2 2 2 3 4 3 3 3 3 2 2 2 2 2 2 3 4 4 3 3 2 2 2 2 2 3 3 3 3 4 4 4 4 5 5 5 5 5 5 6 5 5 6 6 7 7 7 7 8
9 8 7 7 6 5 5 5 5 4 4 3 4 4 5 6 8 9 9 7 5 4 4 5 6 7 6 6 5 5 4 3 1 1 1 1 1 1 1 2 3 3 3 3 2 3 2 2 2 1 1 1 3 3 4 4 3 4 4 4 4 4 4 4 4 5 5 6 6 6 7 7 7 7 6 7 7 7 6 6 6 7 7 8 8
10 8 7 6 6 6 5 4 4 4 4 4 5 6 6 7 9 10 9 7 5 5 5 6 7 7 7 6 6 6 6 4 3 1 0 0 1 2 1 1 2 2 3 3 3 3 3 3 2 2 1 1 1 2 3 4 4 5 5 5 5 5 5 5 5 6 7 7 7 7 7 7 7 7 7 7 8 8 7 7 7 8 8 9 9
10 8 7 7 7 7 5 4 3 4 4 4 5 7 7 9 10 10 7 5 4 5 6 8 7 7 7 6 6 6 6 6 4 3 1 0 1 2 2 1 1 1 2 3 3 4 3 3 3 2 2 2 2 2 2 3 4 4 5 5 5 5 6 6 6 7 8 8 8 8 8 8 7 7 8 8 9 9 9 9 9 9 10 10 10
10 9 8 8 8 6 5 5 4 4 4 5 6 7 9 11 11 9 7 6 5 5 7 9 9 7 7 6 6 5 5 5 4 3 2 1 1 3 3 2 1 1 1 2 2 3 3 3 3 3 3 3 4 3 3 3 4 5 5 5 5 5 6 7 7 8 8 8 9 9 9 9 9 9 9 10 10 10 10 11 11 11 11 11 11
9 9 8 8 8 6 5 5 5 5 4 6 8 9 10 11 9 8 7 7 6 4 7 10 10 9 8 8 7 6 5 5 4 4 3 2 2 3 3 3 3 2 2 2 2 3 4 4 4 4 4 4 5 4 4 4 5 6 6 6 6 6 6 7 7 8 8 8 8 8 9 9 9 10 10 11 11 11 11 11 12 12 12 11 11
10 9 9 8 7 7 7 6 6 5 5 6 9 11 11 10 7 6 6 7 6 5 7 9 10 11 10 9 8 7 5 5 4 5 4 3 2 3 3 3 2 2 3 3 3 3 3 4 4 4 5 5 5 5 5 5 6 6 7 7 7 7 7 8 7 7 7 7 8 8 8 9 9 9 10 10 10 11 11 11 11 11 11 11 11
11 10 9 8 8 9 8 7 7 7 5 6 8 11 11 10 8 6 5 6 6 6 7 8 9 12 11 10 9 8 7 5 4 5 5 4 2 2 2 2 2 2 3 3 3 3 3 4 4 4 5 5 5 5 5 6 6 6 6 7 7 7 7 8 7 6 7 7 8 8 8 8 8 8 9 9 9 9 10 9 10 10 10 10 10
12 13 12 11 10 10 9 8 8 7 6 6 8 10 11 11 10 8 5 5 4 5 8 8 9 11 11 10 9 8 7 5 4 5 5 4 2 1 2 2 2 2 2 2 2 2 3 3 3 4 4 5 6 6 6 6 6 6 6 6 6 6 7 6 6 6 6 6 7 7 7 7 6 7 7 7 7 7 8 8 8 8 8 8 8
13 13 14 13 12 11 10 9 8 7 7 7 8 9 10 11 11 10 7 4 4 5 8 9 10 12 11 10 9 9 8 6 4 4 4 3 2 0 2 2 2 2 2 2 2 2 2 3 3 3 4 5 6 6 6 6 6 6 6 6 6 6 6 6 6 6 5 6 6 6 5 5 5 5 5 5 5 5 6 6 7 7 7 7 7
13 14 15 15 14 13 12 11 9 8 7 7 8 9 9 10 11 11 8 5 5 7 8 8 9 11 12 12 11 10 9 6 4 3 2 2 1 1 2 2 2 1 1 1 0 1 2 3 3 4 4 4 5 5 6 6 6 6 6 6 6 6 6 5 5 5 5 5 4 4 4 3 4 4 4 4 4 4 4 5 5 6 6 6 6
14 15 15 15 15 14 14 12 9 8 8 8 9 9 9 10 10 11 10 8 7 8 9 8 7 7 9 11 11 10 9 8 5 4 2 1 1 2 2 2 2 1 2 3 2 1 2 3 3 4 4 4 5 5 5 6 5 5 5 5 6 6 5 5 5 5 4 3 2 2 2 3 3 3 4 4 4 5 5 5 5 5 6 6 6
14 15 15 15 15 15 14 13 10 9 9 8 8 9 9 10 11 11 12 12 11 10 9 8 7 7 8 9 11 11 11 10 8 5 4 3 3 3 2 2 2 2 3 3 3 3 2 2 3 4 4 5 5 6 6 5 5 5 5 5 5 5 5 5 5 4 3 2 2 2 3 4 5 5 5 5 5 5 5 5 6 6 6 6 6
14 14 15 15 15 15 14 13 10 9 9 9 8 8 9 10 12 12 13 15 15 13 11 9 8 8 8 8 10 12 12 11 10 7 5 5 5 3 2 2 0 1 2 2 4 4 4 3 3 3 4 5 5 6 6 6 6 6 6 5 4 4 4 4 4 3 3 3 4 4 5 5 5 5 4 4 4 4 4 5 5 5 5 5 6
14 13 14 15 16 15 15 14 11 10 10 9 7 7 8 9 12 13 13 15 16 15 14 12 10 10 9 8 8 11 11 10 10 8 7 7 5 3 1 1 1 2 0 1 2 3 4 3 3 3 3 4 5 6 6 6 6 6 5 5 4 4 4 4 4 4 4 4 4 4 4 3 3 3 2 3 3 3 3 3 4 4 4 5 5
14 13 14 15 16 16 15 15 13 12 11 9 7 7 8 8 10 13 13 13 14 15 15 14 13 12 11 10 9 9 9 11 11 10 9 9 8 6 4 3 2 2 1 1 1 2 4 2 0 0 2 4 5 6 6 6 6 6 5 5 5 5 5 5 5 4 4 4 4 3 3 2 2 2 2 2 2 3 3 3 3 4 4 4 4
16 15 14 15 16 16 16 15 14 13 12 10 8 8 8 8 9 12 13 12 13 14 15 15 15 14 13 12 12 10 8 11 12 10 10 12 11 10 8 7 5 3 2 2 2 2 3 2 1 2 2 1 3 4 4 5 6 6 6 7 6 6 6 6 5 4 4 4 4 3 3 3 3 3 3 3 3 3 4 4 4 4 4 4 4
17 16 15 15 16 17 17 16 14 14 13 11 10 9 9 10 10 12 13 13 14 14 15 15 14 15 14 13 14 12 11 12 12 10 9 11 12 12 11 10 9 8 6 5 4 3 3 2 1 1 3 3 2 1 2 3 4 5 6 6 6 6 5 5 5 4 5 5 5 5 5 5 5 4 4 4 4 5 5 5 5 5 4 4 4
18 17 16 16 16 17 17 17 15 14 14 13 11 10 10 11 10 12 13 13 14 15 15 14 13 14 15 15 14 13 13 14 13 12 11 10 11 12 11 11 11 9 8 8 6 5 5 3 2 1 1 3 3 2 1 1 2 3 4 4 5 5 5 5 6 6 6 6 6 6 6 6 6 5 5 5 5 5 5 5 4 4 3 3 3
19 18 17 17 17 18 18 18 16 15 15 14 13 12 12 12 10 10 12 13 13 13 13 12 12 14 16 15 14 13 13 16 16 15 13 12 12 11 11 12 11 9 8 9 8 7 7 6 5 4 2 1 1 2 1 1 0 1 2 3 4 5 5 6 6 7 6 6 6 6 6 6 5 6 6 6 6 6 5 5 5 4 4 3 3
20 19 18 17 18 19 19 18 17 16 16 15 15 13 12 12 11 10 11 11 11 10 10 10 11 14 17 17 16 14 14 15 16 16 15 14 13 13 12 13 12 12 10 10 11 10 10 9 8 6 4 4 2 1 1 1 2 2 2 3 5 6 7 7 7 7 7 6 6 6 6 6 5 6 6 6 6 6 5 5 5 5 4 4 4
23 21 19 19 20 20 19 19 19 18 17 16 15 14 13 13 12 12 12 11 10 9 9 9 10 13 17 18 18 16 15 14 13 14 15 14 14 15 14 13 14 13 12 12 13 12 12 12 10 8 7 6 5 4 4 3 3 4 4 4 5 6 8 8 8 8 8 8 7 7 7 7 7 6 7 7 6 6 6 6 6 6 5 5 5
26 24 21 20 21 21 20 19 19 19 18 17 16 15 14 14 13 13 12 12 11 10 9 9 10 12 15 17 18 18 17 15 14 14 15 15 16 16 15 15 15 13 12 13 13 13 13 14 13 11 10 9 8 7 7 6 5 6 6 6 6 6 7 9 9 9 9 8 8 8 8 8 8 8 8 8 7 7 7 7 7 6 6 6 6
27 25 22 21 21 22 21 20 19 19 19 18 17 16 15 15 14 13 12 11 11 10 10 9 10 12 15 17 18 19 18 17 17 17 16 17 17 16 16 17 17 16 15 14 14 15 14 13 12 12 12 11 10 10 9 8 7 8 8 8 8 7 7 9 10 10 10 10 9 9 9 9 9 9 9 9 9 8 8 8 7 7 7 7 7
26 25 23 22 22 22 22 21 20 20 20 19 19 18 17 16 15 14 13 12 11 11 10 10 10 11 14 16 17 18 18 17 17 18 17 17 18 16 16 18 18 17 17 17 17 16 14 12 12 13 12 11 11 11 11 10 9 9 11 12 11 10 9 9 10 11 11 12 12 11 11 10 11 11 11 10 10 10 9 9 9 9 9 9 9
27 25 25 24 23 22 22 22 21 21 21 21 20 19 19 18 17 16 14 13 12 12 11 11 10 10 12 14 15 16 16 16 16 16 17 17 18 18 18 19 19 18 18 19 18 16 13 13 14 13 12 12 12 12 12 12 11 11 13 14 14 13 12 12 11 12 12 13 13 13 13 12 12 12 12 12 11 11 11 11 11 11 11 10 10
29 27 26 25 24 23 23 23 22 23 23 22 21 20 20 19 19 17 16 14 13 13 12 12 11 10 11 12 13 14 14 15 14 15 16 16 17 19 19 19 19 19 19 20 19 15 13 13 14 12 11 12 12 12 14 14 13 13 15 16 16 15 14 14 14 13 14 14 15 15 14 14 13 13 13 13 13 13 13 13 13 13 12 12 12
30 28 26 25 24 24 23 23 22 23 24 23 22 22 21 21 20 19 18 16 16 15 14 13 13 12 12 12 13 13 14 15 15 15 16 17 17 18 20 20 20 20 20 21 22 19 15 15 15 13 13 13 14 14 15 15 14 15 17 18 18 17 16 16 16 16 16 16 16 16 15 14 14 14 14 14 14 14 14 14 14 14 14 13 13
31 29 27 26 25 25 24 23 23 23 24 24 24 23 23 23 22 21 20 19 18 17 16 15 15 15 15 14 14 14 14 16 17 17 18 18 18 18 20 20 21 21 21 22 24 21 16 16 16 15 16 16 16 18 18 17 16 17 18 19 19 18 18 19 19 18 18 18 18 18 17 16 16 16 15 15 15 15 16 16 16 16 15 15 15
32 30 29 27 26 25 25 23 23 24 24 25 25 24 24 24 23 22 21 20 20 19 18 17 17 17 18 17 17 16 15 16 17 18 19 20 20 20 21 21 21 22 21 23 26 24 19 19 19 19 19 19 20 21 22 20 19 19 20 21 21 21 21 21 21 21 20 20 19 20 19 18 18 18 17 16 17 17 17 18 18 17 17 16 16
33 31 30 28 27 27 26 25 24 24 24 24 25 25 25 24 24 23 23 22 22 21 20 19 19 19 20 19 19 17 17 17 18 18 20 21 22 22 23 23 23 23 23 24 28 27 23 22 21 21 22 23 24 24 24 24 23 22 23 23 23 23 24 23 23 23 22 21 21 21 21 20 20 20 19 18 19 19 19 19 19 18 18 17 17
35 33 31 30 29 29 28 27 26 25 25 24 24 25 25 25 25 24 24 23 23 22 22 21 21 21 21 21 21 19 19 20 20 20 20 21 22 24 24 26 26 25 26 26 28 30 28 25 23 23 23 25 26 26 26 26 26 25 26 26 25 26 26 25 25 24 23 23 23 23 23 22 22 22 21 21 21 21 20 20 20 19 18 18 17
36 35 33 31 31 31 31 29 28 27 26 26 26 26 27 27 26 25 25 24 24 24 24 23 22 22 23 23 23 21 21 22 22 22 22 22 22 24 25 26 27 28 28 29 30 32 32 30 27 26 25 26 28 27 27 28 29 29 29 28 28 28 28 28 28 27 25 24 24 25 25 24 24 24 24 23 22 22 22 21 21 20 19 18 18
36 35 34 33 33 33 33 32 30 29 28 27 27 28 28 28 28 27 27 26 26 25 25 25 24 24 24 25 24 23 24 25 24 24 24 24 24 25 25 26 27 28 29 30 32 33 35 36 33 31 29 29 30 29 29 30 31 32 32 32 31 31 31 30 30 30 28 26 26 26 26 26 26 26 25 25 24 24 24 23 22 21 20 20 19
35 35 35 35 35 35 35 34 32 31 29 29 29 29 29 29 29 28 28 28 28 27 27 26 26 26 26 26 25 24 25 26 26 25 25 25 26 26 27 27 28 28 28 30 32 33 36 38 37 35 34 33 33 32 31 31 32 33 34 35 35 35 35 34 33 33 31 30 29 28 28 28 28 28 28 27 26 25 25 25 24 22 22 21 21
35 35 35 35 36 37 36 35 34 33 32 31 30 30 30 30 30 30 30 30 30 29 29 28 27 27 27 27 26 26 27 27 27 26 26 26 26 27 28 28 29 30 30 30 31 33 36 38 38 38 37 36 36 35 33 33 34 35 35 37 37 38 38 38 37 36 34 33 32 31 31 31 30 30 30 29 28 27 26 26 25 24 24 23 22
36 36 36 36 37 37 37 36 35 35 34 33 33 32 31 30 30 30 30 30 30 31 30 30 29 29 28 28 27 27 28 28 27 27 26 26 27 27 27 28 29 30 32 32 32 34 35 37 38 38 37 36 36 36 34 34 36 37 37 39 40 40 40 40 40 39 37 36 36 35 34 33 32 32 32 31 29 28 27 27 27 26 26 25 24
37 37 37 36 37 37 38 37 36 36 36 36 35 34 33 32 31 31 30 30 30 30 30 30 30 30 30 29 29 28 28 28 27 27 27 28 29 29 29 29 29 31 32 32 33 34 36 38 39 39 39 38 38 37 36 36 38 38 38 40 42 42 41 42 42 41 41 40 39 38 37 36 35 34 34 33 32 31 30 29 29 28 27 27 26
36 36 36 37 37 37 38 38 38 37 37 37 36 35 35 34 34 33 32 32 31 31 31 31 31 31 31 31 31 30 30 29 29 29 30 31 32 32 31 31 32 33 33 34 35 36 37 38 39 39 41 42 41 39 38 39 39 39 39 41 44 44 43 44 44 44 43 43 42 42 42 40 38 37 36 36 35 34 33 32 31 30 28 28 27
36 36 36 36 37 38 38 38 38 38 39 38 37 36 35 35 35 35 34 33 33 32 32 32 32 32 32 32 32 32 32 32 32 32 32 33 33 34 33 33 34 35 36 37 38 38 39 41 41 41 43 45 43 41 41 41 40 41 42 44 46 45 45 47 47 46 44 44 44 45 45 42 41 40 39 38 37 36 35 35 33 32 30 29 27
36 36 36 37 37 37 38 38 38 39 39 38 37 36 36 35 35 35 35 34 34 34 33 34 34 33 33 33 33 33 33 33 33 33 33 33 34 34 34 34 35 36 37 39 40 41 42 43 44 43 45 47 45 43 44 43 42 44 45 45 47 47 47 48 49 48 45 44 44 47 46 43 42 42 41 40 39 37 37 37 35 33 31 30 28
37 37 37 37 38 38 38 39 39 39 39 38 37 36 36 35 35 35 36 35 36 35 35 35 35 34 35 35 34 34 34 33 33 33 34 33 34 34 35 35 35 36 38 39 41 42 43 45 47 47 48 49 48 47 47 46 45 46 47 47 48 48 48 49 50 50 46 43 44 48 47 44 43 43 42 41 40 38 38 38 36 34 32 31 29
39 39 38 38 38 38 39 40 40 39 39 37 37 36 36 35 35 36 36 37 37 37 36 36 35 35 35 36 36 36 34 34 34 34 34 34 34 34 35 36 36 37 37 38 40 41 42 44 48 50 49 49 50 49 47 46 48 49 50 50 50 51 51 51 52 51 48 45 46 48 48 46 45 44 43 41 40 38 38 38 37 35 34 32 31
40 40 39 39 39 39 39 40 40 40 39 38 37 37 37 36 36 36 36 37 38 38 38 37 37 36 36 36 37 36 35 35 35 34 35 35 34 35 36 37 37 37 37 38 39 40 41 43 47 49 49 48 50 50 47 47 50 51 52 52 52 53 55 55 54 52 50 48 47 46 47 47 45 45 45 42 40 39 38 37 37 36 35 33 32
39 39 39 39 39 39 39 39 40 41 40 39 38 38 37 37 37 37 37 37 38 38 38 38 38 37 36 37 37 36 35 35 35 34 34 34 35 37 38 39 39 39 39 39 39 39 40 41 43 46 46 46 48 48 46 46 48 50 51 53 54 56 57 55 54 55 54 53 49 46 48 47 43 44 46 42 39 40 39 37 37 37 36 35 34
39 38 39 39 39 39 39 39 40 41 39 39 39 39 38 38 38 38 38 37 38 38 38 37 37 37 36 37 37 36 36 35 34 33 33 34 37 39 41 42 42 43 44 43 42 41 41 42 43 44 45 45 46 46 46 47 48 50 52 55 57 58 56 53 56 58 54 51 48 45 46 46 43 44 46 44 41 41 40 39 38 38 38 37 35
38 38 38 38 38 39 39 39 39 39 38 38 39 39 39 39 39 38 38 38 37 37 37 36 35 36 35 36 36 37 37 36 34 33 33 35 38 40 42 43 44 47 48 47 46 46 45 45 46 47 47 48 48 48 48 49 50 51 54 58 60 60 56 54 56 55 47 45 47 45 43 44 44 45 45 45 45 44 42 41 40 38 38 38 37
34 34 34 35 36 38 38 38 38 38 38 38 38 38 38 38 38 38 37 37 37 37 36 35 34 35 35 35 35 36 37 36 35 34 34 36 39 41 43 45 47 50 50 47 46 47 48 48 49 49 50 50 50 50 50 50 49 50 53 58 60 59 58 57 54 50 47 51 54 48 44 46 48 48 46 45 47 48 46 43 42 40 39 39 38
31 30 31 33 34 35 36 37 37 38 38 37 37 37 37 37 37 36 36 37 38 37 36 35 34 34 34 34 34 34 35 35 35 35 36 39 41 43 44 45 48 49 47 45 45 45 46 47 48 49 49 50 52 52 52 52 50 49 50 53 55 57 61 62 56 49 49 54 57 52 50 52 54 53 50 47 48 50 47 44 43 41 40 40 39
Wind_Direction
153 158 157 153 151 149 147 145 146 139 141 148 155 164 174 182 179 186 205 203 201 204 207 220 236 219 165 150 125 119 120 119 112 108 114 121 130 146 161 160 160 161 172 177 133 125 138 156 175 189 192 197 195 189 174 165 161 163 164 169 182 212 243 266 264 284 292 297 308 309 309 316 325 326 329 338 345 347 347 348 349 351 354 355 357
157 161 161 160 163 163 156 153 156 152 148 156 161 168 170 175 178 170 166 163 168 179 187 204 217 209 166 142 116 111 119 130 130 138 134 122 120 136 165 171 169 175 185 192 174 144 133 147 170 192 199 210 221 229 235 231 219 205 212 227 255 275 279 289 286 287 292 293 299 303 303 305 306 306 313 322 327 330 333 334 336 341 344 345 347
161 166 169 171 172 172 171 171 170 165 163 166 169 174 169 171 177 170 162 158 154 149 150 175 179 162 146 132 114 113 121 135 144 166 155 129 115 125 161 183 186 190 193 192 186 176 159 149 163 189 201 213 220 223 231 240 251 257 267 273 280 287 288 289 292 296 298 299 302 302 303 303 301 300 306 312 315 318 322 325 329 334 336 336 337
162 168 175 179 184 187 190 186 183 180 175 172 180 187 182 180 178 174 168 159 152 145 142 155 152 140 138 132 118 111 105 109 120 162 180 152 150 142 150 183 194 200 207 202 200 199 190 182 182 193 211 231 230 225 226 231 242 253 263 269 272 278 284 289 291 295 299 302 303 302 303 304 303 302 305 311 315 320 325 327 329 329 330 330 331
166 171 179 185 194 199 200 191 187 193 185 179 186 187 188 186 179 177 173 159 149 151 154 159 153 145 143 137 124 107 91 91 96 93 19 233 197 199 173 167 188 198 211 212 216 214 209 208 203 204 218 247 255 247 240 235 241 251 257 258 264 272 278 285 290 294 298 300 300 300 302 304 305 305 307 312 316 318 320 320 319 319 320 321 322
173 179 190 191 194 198 196 190 194 203 193 183 189 188 188 185 179 180 180 171 171 175 172 170 166 157 149 142 128 108 92 89 87 86 62 1 213 205 186 170 177 199 214 220 221 217 216 223 221 219 223 234 245 251 255 254 253 257 260 257 261 270 276 281 286 293 296 297 296 295 297 299 301 301 302 306 306 306 307 308 309 310 311 312 312
178 184 196 195 197 204 197 192 204 211 193 184 194 194 187 182 180 185 191 193 203 202 186 182 178 166 156 147 131 115 104 94 81 77 71 63 196 198 186 181 188 208 230 235 235 227 225 223 227 234 232 235 240 243 252 261 263 262 265 266 264 267 273 280 284 290 294 295 295 294 294 294 295 295 295 296 297 300 302 303 305 306 307 306 305
186 189 200 199 200 212 215 207 212 214 198 189 196 194 187 186 186 192 202 201 202 195 187 186 177 165 160 154 140 131 123 105 84 69 64 74 162 186 184 181 191 210 227 241 247 242 236 228 230 239 244 247 245 243 248 256 262 263 265 268 272 274 278 283 286 290 293 294 297 297 296 294 291 290 291 291 294 297 298 299 301 301 302 301 300
198 200 206 208 209 217 222 221 222 219 205 194 193 191 190 196 198 206 223 214 202 191 189 189 179 171 169 163 157 149 137 119 99 75 68 82 139 172 176 176 190 212 220 229 239 240 241 236 233 234 244 252 251 250 253 259 264 266 270 270 274 276 277 283 287 290 291 291 293 294 294 292 290 288 289 290 291 293 294 297 298 298 300 300 299
210 215 215 216 219 221 222 221 224 222 210 201 199 198 198 205 210 218 232 221 210 201 194 191 184 179 174 171 172 162 145 131 105 84 81 85 97 152 172 174 181 201 215 225 236 241 242 241 242 237 242 250 252 255 256 260 262 265 272 273 275 276 275 280 287 288 288 288 288 289 290 290 290 289 289 292 292 293 295 297 300 300 302 302 302
219 225 225 224 225 226 226 222 222 223 214 206 206 208 208 211 217 222 227 218 202 183 177 173 171 174 172 170 177 171 159 147 114 92 81 69 57 134 183 180 177 188 207 219 230 247 249 248 255 249 249 253 252 254 254 257 261 262 266 269 273 275 276 279 281 282 285 289 290 292 292 292 293 292 292 296 296 298 302 304 307 309 309 310 311
225 229 227 227 229 229 229 222 219 219 214 208 205 207 210 213 216 218 221 215 180 154 159 160 156 160 163 166 174 174 172 165 134 102 66 39 23 116 188 184 176 192 204 211 222 248 259 254 256 253 251 255 255 253 250 250 254 255 255 258 262 264 266 269 273 280 285 285 287 293 298 300 304 306 309 311 311 313 314 317 319 320 322 323 324
225 227 224 224 227 229 228 223 218 215 212 208 201 200 207 209 207 208 211 205 173 151 155 164 162 160 160 164 171 175 178 179 163 127 68 26 15 141 169 186 180 191 177 141 163 260 261 257 254 247 240 248 254 252 250 249 251 255 252 248 248 251 253 253 262 272 273 274 281 293 302 309 316 324 329 329 331 331 331 334 334 333 337 338 337
221 221 220 220 222 225 228 226 221 217 216 213 203 196 201 208 206 207 206 195 173 161 162 172 180 176 167 167 171 178 186 191 187 169 146 98 142 151 151 169 174 160 124 98 55 359 286 271 263 244 236 242 245 248 256 256 254 258 255 247 243 242 242 243 250 254 252 258 270 285 298 307 312 317 321 322 323 327 330 331 331 331 331 331 330
218 218 219 218 218 222 228 229 224 222 225 224 212 198 197 203 206 207 203 191 177 173 176 183 193 182 168 174 181 187 195 201 199 185 174 166 151 148 139 147 153 134 129 92 43 14 331 301 282 252 243 242 237 243 252 250 255 267 265 254 245 241 240 239 239 233 226 235 252 271 285 291 296 299 302 306 309 312 316 316 318 320 320 321 324
214 216 218 217 217 222 227 229 226 227 231 230 221 204 198 200 202 204 200 192 185 185 187 194 214 208 186 183 184 194 206 205 196 185 181 177 162 145 130 143 106 82 134 80 45 17 345 323 303 274 253 243 238 242 240 237 256 274 271 261 249 239 234 228 224 221 228 250 266 275 281 285 290 295 300 305 310 314 317 318 319 322 323 326 328
210 215 218 217 218 222 227 228 226 229 232 230 222 209 203 199 201 202 198 195 194 197 198 198 216 233 228 212 191 199 212 203 194 195 188 182 180 178 169 194 322 354 35 107 65 20 357 334 305 293 270 253 246 243 236 237 255 265 262 257 248 239 235 234 239 247 253 261 266 268 274 280 287 298 309 313 320 325 323 323 322 322 324 324 325
211 215 218 219 218 221 226 227 226 229 232 232 223 212 211 205 200 198 194 195 199 205 209 207 212 223 230 231 223 220 213 194 195 206 199 193 199 204 213 231 266 324 353 187 206 357 4 4 13 343 280 259 251 245 238 241 250 251 249 250 249 249 250 251 252 252 252 251 249 249 252 259 265 271 283 292 300 304 302 302 304 305 307 308 312
212 215 218 220 220 220 225 227 226 229 233 235 228 217 216 216 209 200 193 193 198 205 211 215 219 217 214 219 226 230 221 203 204 209 203 202 206 210 218 227 236 250 265 259 263 295 341 6 98 81 26 262 239 241 235 239 243 244 248 250 250 253 253 251 248 241 238 238 238 241 243 248 252 255 260 265 267 272 277 280 283 286 290 294 299
214 217 218 221 222 222 224 227 227 228 231 234 232 223 216 218 217 209 202 198 199 206 210 215 222 217 211 214 219 223 226 224 222 221 217 211 209 215 221 227 237 243 248 259 264 264 291 323 138 85 54 82 118 188 220 226 233 237 242 244 245 247 246 245 242 237 238 243 247 252 253 255 258 259 259 259 261 265 270 274 277 279 280 287 295
215 217 218 221 224 224 225 227 228 228 230 231 231 227 217 217 218 212 211 209 206 207 211 220 228 222 219 221 221 222 226 228 226 227 234 230 221 223 225 228 237 241 246 251 250 246 251 259 236 199 109 88 82 73 113 184 213 229 235 238 239 239 241 243 245 246 248 253 258 261 264 264 263 262 258 257 258 261 265 267 268 271 276 287 297
217 216 217 220 224 225 226 228 229 229 230 230 229 227 219 217 216 209 209 213 212 212 215 224 231 227 226 228 227 226 222 220 220 222 232 238 238 240 235 234 242 249 253 258 260 258 253 249 243 231 219 202 69 56 57 72 259 250 240 243 246 242 244 249 253 253 253 256 261 263 265 265 262 259 256 255 257 258 259 260 260 266 276 284 290
222 218 217 219 222 223 225 227 229 231 231 230 230 229 223 218 218 211 206 210 215 221 222 222 226 224 224 227 230 230 226 222 221 224 231 239 244 248 244 242 250 258 264 270 272 268 260 251 245 241 236 238 253 285 315 333 308 288 276 263 260 255 251 254 259 262 263 263 266 267 268 268 265 262 259 258 259 260 261 262 264 271 279 286 290
226 223 217 217 220 220 221 224 227 229 231 230 230 231 227 222 223 221 216 215 219 228 233 230 228 227 226 228 228 228 230 232 233 234 239 247 251 254 254 250 252 260 268 271 271 266 258 250 246 243 242 241 248 257 271 289 297 296 299 290 277 268 259 258 261 263 266 267 268 272 273 272 271 269 267 266 265 265 266 266 269 272 273 276 276
226 224 217 214 219 220 219 222 225 229 231 231 230 230 231 228 227 228 226 226 229 235 244 247 245 240 237 236 234 232 231 233 236 240 244 249 251 253 252 251 253 260 267 270 270 266 256 249 245 243 243 245 246 253 265 277 285 289 297 299 294 284 271 265 265 265 264 264 265 268 270 271 272 271 269 267 266 265 265 265 265 267 265 265 266
226 225 220 216 220 222 222 224 226 229 231 232 231 231 233 234 233 234 234 234 237 242 248 256 257 248 241 240 242 243 241 239 239 242 244 243 244 246 244 244 249 253 259 268 272 268 261 256 252 248 249 251 249 252 260 271 278 281 283 287 289 290 284 275 271 267 262 261 264 264 265 265 265 265 264 263 262 260 259 259 259 259 259 259 261
229 228 227 223 221 222 223 224 226 229 231 232 233 233 235 236 237 237 237 237 239 243 246 252 257 250 242 241 244 247 249 251 249 246 245 240 238 242 241 241 247 252 257 266 270 271 273 269 263 259 258 260 257 258 262 266 270 271 272 275 279 283 285 283 279 272 264 261 262 262 261 260 258 256 256 255 255 254 253 254 254 255 256 258 261
231 231 232 229 224 221 221 223 226 229 231 232 233 235 237 238 240 239 237 237 239 241 243 245 251 253 247 245 247 249 252 258 258 249 243 237 233 237 239 241 248 255 261 266 270 275 279 272 267 267 267 267 266 265 264 262 260 261 265 269 275 279 281 285 285 280 273 265 262 261 260 259 254 250 249 248 249 249 250 251 252 253 255 257 259
232 232 233 233 229 223 221 222 225 228 231 232 233 235 237 240 243 243 241 240 241 242 242 242 245 249 251 250 251 253 255 260 262 255 246 239 233 235 239 241 245 253 260 267 273 279 280 275 274 275 275 275 274 271 266 261 256 257 262 267 272 275 278 282 285 285 280 272 266 264 262 258 253 247 246 246 247 248 249 250 251 253 254 256 259
232 232 233 235 233 227 222 221 222 226 229 231 233 234 236 238 241 244 244 244 243 242 241 241 243 246 250 252 253 252 253 256 261 262 257 250 242 238 240 241 243 247 255 264 272 277 277 274 275 278 278 278 278 276 271 265 259 257 259 264 268 272 275 278 282 284 282 275 268 264 261 256 252 249 248 248 248 250 251 252 254 256 258 261 264
231 231 232 234 234 229 224 221 221 223 227 231 233 234 235 238 240 242 243 244 244 242 240 239 241 245 249 251 252 252 252 254 256 258 260 259 254 248 245 244 243 246 251 260 268 275 276 273 276 281 280 279 276 274 273 269 265 262 262 264 267 271 274 274 276 279 280 277 269 262 259 256 254 253 252 252 252 253 255 256 258 260 264 267 270
231 231 232 233 233 229 225 222 220 221 224 228 232 234 236 238 240 242 243 244 245 244 243 241 240 242 246 249 251 253 255 256 256 256 258 260 260 257 253 251 249 249 251 254 261 272 278 274 274 277 276 276 274 271 271 270 268 266 265 266 268 269 269 269 271 274 277 277 270 262 259 257 256 256 256 257 258 258 258 259 261 263 266 269 270
232 232 232 231 230 229 227 224 221 221 222 225 229 234 236 238 240 242 244 245 246 246 246 245 243 243 245 248 250 252 255 257 257 257 257 259 260 260 258 257 256 256 255 255 260 270 278 276 273 272 271 272 271 271 272 272 271 270 268 268 268 268 268 268 269 271 274 275 270 262 259 258 258 258 259 260 261 261 260 259 260 263 265 268 270
234 234 234 232 230 229 229 227 224 223 223 225 228 232 235 238 240 241 243 245 246 248 248 247 246 246 247 249 251 252 254 257 258 258 258 259 260 261 260 261 262 262 261 260 262 267 274 277 274 271 269 269 270 271 272 273 274 274 272 271 270 270 271 270 270 271 272 274 271 263 259 259 260 260 261 262 263 262 260 258 258 259 263 266 269
234 235 235 234 231 230 230 230 228 227 227 227 229 231 234 237 239 241 243 245 247 248 250 250 250 250 252 253 255 255 256 258 259 260 261 261 261 261 262 262 263 264 264 264 265 268 273 278 277 274 272 270 271 272 273 274 274 273 272 271 271 271 272 271 271 271 271 272 270 264 259 258 258 259 260 262 263 263 261 259 257 257 260 265 267
234 235 235 235 233 232 232 232 231 230 230 230 231 232 234 237 239 242 244 246 249 250 251 253 254 254 256 258 259 260 260 261 262 262 263 263 263 263 264 264 264 265 265 265 267 269 272 276 278 278 278 276 275 274 274 273 272 272 272 271 270 270 270 269 269 270 270 270 268 264 260 258 258 258 259 261 262 263 261 259 257 256 259 262 265
234 234 234 234 233 232 232 232 233 233 233 233 234 235 235 237 239 241 244 246 249 250 252 254 256 257 259 260 261 262 263 264 264 264 264 264 265 266 267 268 269 270 270 269 269 271 272 275 280 282 282 281 280 279 277 276 274 272 272 271 271 270 270 270 269 269 269 268 266 263 260 258 257 257 258 258 259 261 260 258 256 256 257 260 263
233 233 234 234 234 233 233 233 234 236 236 237 238 238 238 239 240 242 244 246 248 250 252 253 255 258 260 261 262 262 263 265 266 266 266 267 268 269 269 271 273 274 274 273 273 273 273 276 280 282 283 283 283 281 280 279 277 274 272 272 271 270 270 270 269 269 268 268 266 264 261 259 257 256 256 257 258 259 259 257 255 255 256 258 260
233 233 233 234 234 235 235 235 236 237 239 240 241 242 242 242 243 244 245 247 248 249 250 252 254 256 258 260 262 262 264 266 267 268 269 270 271 271 272 274 275 277 277 277 277 277 277 278 279 281 283 284 284 282 281 279 277 275 273 271 271 271 270 270 270 270 269 268 267 266 265 263 260 258 256 255 256 256 256 255 254 254 254 255 257
235 234 234 234 235 236 237 238 239 240 241 242 243 243 244 244 245 246 247 249 250 251 251 252 253 255 257 259 261 262 264 265 267 268 270 272 273 273 274 275 276 278 278 279 279 278 278 279 279 281 282 282 281 281 281 279 275 275 274 273 273 275 274 273 273 273 271 269 268 268 267 265 263 261 258 255 253 252 252 253 253 253 252 252 255
239 237 236 236 236 237 238 239 240 242 243 243 243 243 244 245 246 248 250 251 253 254 255 255 256 257 258 259 261 262 263 265 266 268 269 271 273 274 275 276 276 277 277 278 278 278 279 279 280 281 281 281 280 281 280 279 277 279 280 276 275 276 276 275 275 274 272 270 270 269 268 266 264 263 261 258 254 251 251 252 252 252 252 252 254
240 240 239 239 239 238 239 239 241 242 243 243 244 244 244 246 247 250 251 253 254 256 257 258 259 260 260 262 263 264 265 266 267 268 270 271 272 273 275 275 276 277 277 278 278 278 279 279 280 281 281 281 282 282 282 281 282 283 281 278 278 278 277 275 275 275 273 271 270 269 268 267 265 263 261 259 256 252 250 250 250 251 252 253 253
240 241 241 241 241 241 241 242 242 243 243 244 244 245 246 247 248 250 253 255 257 258 260 261 262 264 265 266 268 268 269 270 271 272 273 274 275 276 276 277 278 279 279 280 280 280 280 281 281 282 282 282 284 285 284 285 285 284 283 282 281 280 278 276 276 277 276 274 272 271 270 269 266 263 262 260 257 253 250 250 250 250 251 252 253
239 240 241 241 242 242 244 245 245 246 246 246 246 247 248 249 250 252 254 256 259 260 262 264 266 268 270 271 273 274 274 275 276 278 279 280 280 281 281 282 282 281 281 281 281 281 281 282 282 282 282 283 286 287 286 288 289 287 286 284 282 281 279 277 276 278 281 280 275 271 272 272 268 265 263 261 259 256 252 251 251 249 248 249 250
241 241 241 242 243 243 244 245 247 248 248 248 249 249 250 251 252 254 256 258 260 262 264 267 269 271 272 274 276 277 278 280 281 282 283 285 286 286 287 287 285 285 284 283 283 283 283 283 282 283 284 284 286 289 291 291 290 288 286 285 285 283 281 278 280 283 286 283 276 272 274 275 271 267 265 264 262 260 255 251 250 248 247 246 246
242 242 243 243 244 244 245 246 248 249 250 251 252 252 253 254 255 256 257 259 261 263 266 268 270 272 274 275 277 279 281 282 283 284 285 287 289 290 290 290 289 288 287 286 286 286 285 284 283 286 289 287 287 291 294 292 288 287 287 286 287 286 283 282 285 286 284 279 275 272 273 275 274 271 270 268 266 264 260 255 250 248 246 244 243
244 245 245 246 246 246 246 247 249 250 251 252 253 254 255 256 257 258 259 261 262 264 266 268 270 273 274 276 277 279 281 283 284 286 287 289 291 291 291 291 291 291 290 289 290 290 289 288 287 288 291 290 289 291 293 290 287 287 287 286 286 284 281 279 279 279 277 274 271 268 268 271 274 273 274 274 270 267 263 258 252 248 246 244 242
247 247 247 248 248 248 249 249 250 252 252 253 255 256 257 258 259 260 261 262 264 265 267 268 270 273 274 275 277 279 281 283 285 287 289 290 290 289 290 290 291 291 291 290 291 291 290 289 289 288 290 291 290 289 290 288 285 284 284 282 281 278 274 271 271 272 272 271 269 266 267 270 272 273 276 277 273 268 264 259 253 248 245 243 241
247 247 248 249 249 250 250 251 252 253 254 255 256 258 259 259 260 261 262 263 264 266 268 269 270 272 274 275 277 278 280 282 285 287 289 289 289 288 289 290 291 291 290 290 290 291 291 292 291 291 291 291 290 288 288 286 284 283 279 276 276 274 270 266 267 268 268 269 271 269 267 268 269 269 271 272 271 268 263 257 252 247 242 241 239
248 249 250 251 251 252 252 252 253 255 256 258 259 260 261 261 261 262 263 264 266 267 269 270 271 272 273 275 277 279 281 284 286 289 289 288 287 287 287 289 289 289 289 289 290 293 294 293 293 292 291 292 291 289 287 286 285 283 277 275 277 276 271 266 264 264 266 269 271 268 263 263 265 263 260 259 260 259 257 254 251 244 237 235 235
249 250 251 252 252 253 254 254 255 256 258 259 260 261 262 262 262 264 265 265 267 268 269 271 272 273 275 277 279 281 283 286 287 287 286 284 283 284 285 285 285 288 292 293 292 292 291 291 293 292 292 294 294 291 289 288 286 283 277 276 278 275 271 269 266 261 259 261 265 265 261 260 261 259 255 251 249 250 250 249 247 242 234 231 231